• In Uzbekistan
  • List of Countries
  • For 7 days
  • Water Temperature
  • Satellite Maps
  • Weather Map
  • Weather Widgets
  • user-avatar
    Login

    Hourly Weather Hrazdan

    Today, 22 August, Tuesday

    Time Temperature Precipitation Wind Pressure Humidity
    00:00 +16°C° 0 mm 2 mps 613 mmHg 72%
    01:00 +16°C° 0 mm 2 mps 613 mmHg 72%
    02:00 +15°C° 0 mm 2 mps 613 mmHg 73%
    03:00 +16°C° 0 mm 2 mps 613 mmHg 69%
    04:00 +16°C° 0 mm 1 mps 613 mmHg 68%
    05:00 +16°C° 0 mm 1 mps 613 mmHg 67%
    06:00 +16°C° 0 mm 1 mps 613 mmHg 66%
    07:00 +19°C° 0 mm 1 mps 614 mmHg 57%
    08:00 +22°C° 0 mm 1 mps 615 mmHg 48%
    09:00 +25°C° 0 mm 2 mps 616 mmHg 38%
    10:00 +26°C° 0 mm 2 mps 616 mmHg 35%
    11:00 +27°C° 0 mm 2 mps 616 mmHg 33%
    12:00 +28°C° 0 mm 2 mps 616 mmHg 30%
    13:00 +29°C° 0 mm 2 mps 616 mmHg 29%
    14:00 +29°C° 0 mm 3 mps 616 mmHg 29%
    15:00 +29°C° 0 mm 3 mps 616 mmHg 29%
    16:00 +28°C° 0 mm 3 mps 615 mmHg 34%
    17:00 +27°C° 0 mm 2 mps 615 mmHg 39%
    18:00 +25°C° 0 mm 2 mps 614 mmHg 44%
    19:00 +23°C° 0 mm 2 mps 614 mmHg 50%
    20:00 +20°C° 0 mm 2 mps 613 mmHg 56%
    21:00 +18°C° 0 mm 2 mps 613 mmHg 62%
    22:00 +18°C° 0 mm 2 mps 613 mmHg 62%
    23:00 +17°C° 0 mm 2 mps 613 mmHg 63%

    Tomorrow, 23 August, Wednesday

    Time Temperature Precipitation Wind Pressure Humidity
    00:00 +17°C° 0 mm 2 mps 613 mmHg 63%
    01:00 +16°C° 0 mm 2 mps 613 mmHg 64%
    02:00 +16°C° 0 mm 2 mps 613 mmHg 64%
    03:00 +15°C° 0 mm 2 mps 613 mmHg 65%
    04:00 +15°C° 0 mm 2 mps 613 mmHg 65%
    05:00 +15°C° 0 mm 2 mps 613 mmHg 65%
    06:00 +15°C° 0 mm 2 mps 613 mmHg 66%
    07:00 +17°C° 0 mm 2 mps 614 mmHg 58%
    08:00 +20°C° 0 mm 2 mps 615 mmHg 50%
    09:00 +24°C° 0 mm 2 mps 616 mmHg 43%
    10:00 +25°C° 0 mm 2 mps 616 mmHg 39%
    11:00 +26°C° 0 mm 3 mps 616 mmHg 35%
    12:00 +28°C° 0 mm 3 mps 617 mmHg 31%
    13:00 +28°C° 0 mm 3 mps 617 mmHg 31%
    14:00 +28°C° 0 mm 3 mps 616 mmHg 31%
    15:00 +29°C° 0 mm 3 mps 616 mmHg 30%
    16:00 +27°C° 0 mm 3 mps 616 mmHg 35%
    17:00 +26°C° 0 mm 3 mps 616 mmHg 39%
    18:00 +24°C° 0 mm 3 mps 615 mmHg 44%
    19:00 +21°C° 0 mm 3 mps 615 mmHg 46%
    20:00 +19°C° 0 mm 3 mps 615 mmHg 49%
    21:00 +17°C° 0 mm 3 mps 615 mmHg 51%
    22:00 +17°C° 0 mm 3 mps 615 mmHg 52%
    23:00 +16°C° 0 mm 3 mps 615 mmHg 53%

    Day after tomorrow, 24 August, Thursday

    Time Temperature Precipitation Wind Pressure Humidity
    00:00 +15°C° 0 mm 2 mps 615 mmHg 54%
    01:00 +15°C° 0 mm 2 mps 615 mmHg 56%
    02:00 +15°C° 0 mm 2 mps 615 mmHg 58%
    03:00 +14°C° 0 mm 2 mps 614 mmHg 60%
    04:00 +14°C° 0 mm 2 mps 615 mmHg 62%
    05:00 +14°C° 0 mm 2 mps 615 mmHg 64%
    06:00 +14°C° 0 mm 2 mps 615 mmHg 65%
    07:00 +16°C° 0 mm 2 mps 616 mmHg 58%
    08:00 +19°C° 0 mm 2 mps 617 mmHg 51%
    09:00 +23°C° 0 mm 2 mps 618 mmHg 44%
    10:00 +24°C° 0 mm 2 mps 618 mmHg 40%
    11:00 +26°C° 0 mm 3 mps 618 mmHg 37%
    12:00 +27°C° 0 mm 3 mps 618 mmHg 33%
    13:00 +27°C° 0 mm 3 mps 618 mmHg 32%
    14:00 +28°C° 0 mm 3 mps 618 mmHg 31%
    15:00 +28°C° 0 mm 4 mps 618 mmHg 31%
    16:00 +26°C° 0 mm 3 mps 617 mmHg 34%
    17:00 +25°C° 0 mm 3 mps 617 mmHg 37%
    18:00 +22°C° 0 mm 3 mps 616 mmHg 41%
    19:00 +21°C° 0 mm 3 mps 616 mmHg 43%
    20:00 +19°C° 0 mm 3 mps 616 mmHg 44%
    21:00 +17°C° 0 mm 3 mps 616 mmHg 46%
    22:00 +16°C° 0 mm 3 mps 616 mmHg 47%
    23:00 +16°C° 0 mm 2 mps 616 mmHg 47%

    25 August, Friday

    Time Temperature Precipitation Wind Pressure Humidity
    00:00 +15°C° 0 mm 2 mps 616 mmHg 48%
    01:00 +15°C° 0 mm 2 mps 616 mmHg 50%
    02:00 +14°C° 0 mm 2 mps 616 mmHg 52%
    03:00 +14°C° 0 mm 2 mps 615 mmHg 55%
    04:00 +14°C° 0 mm 2 mps 616 mmHg 56%
    05:00 +14°C° 0 mm 2 mps 616 mmHg 57%
    06:00 +13°C° 0 mm 2 mps 616 mmHg 58%
    07:00 +16°C° 0 mm 2 mps 616 mmHg 52%
    08:00 +19°C° 0 mm 2 mps 617 mmHg 45%
    09:00 +21°C° 0 mm 2 mps 618 mmHg 38%
    10:00 +24°C° 0 mm 2 mps 618 mmHg 35%
    11:00 +25°C° 0 mm 2 mps 618 mmHg 32%
    12:00 +27°C° 0 mm 3 mps 619 mmHg 29%
    13:00 +27°C° 0 mm 3 mps 618 mmHg 28%
    14:00 +27°C° 0 mm 3 mps 618 mmHg 27%
    15:00 +27°C° 0 mm 3 mps 618 mmHg 27%
    16:00 +26°C° 0 mm 3 mps 617 mmHg 30%
    17:00 +24°C° 0 mm 3 mps 617 mmHg 33%
    18:00 +22°C° 0 mm 3 mps 616 mmHg 36%
    19:00 +20°C° 0 mm 3 mps 616 mmHg 37%
    20:00 +18°C° 0 mm 3 mps 616 mmHg 37%
    21:00 +16°C° 0 mm 3 mps 616 mmHg 38%
    22:00 +16°C° 0 mm 3 mps 616 mmHg 38%
    23:00 +14°C° 0 mm 3 mps 615 mmHg 38%

    26 August, Saturday

    Time Temperature Precipitation Wind Pressure Humidity
    00:00 +14°C° 0 mm 2 mps 615 mmHg 38%
    01:00 +14°C° 0 mm 2 mps 615 mmHg 38%
    02:00 +13°C° 0 mm 2 mps 615 mmHg 39%
    03:00 +13°C° 0 mm 2 mps 615 mmHg 40%
    04:00 +13°C° 0 mm 2 mps 615 mmHg 41%
    05:00 +13°C° 0 mm 2 mps 615 mmHg 42%
    06:00 +12°C° 0 mm 2 mps 615 mmHg 44%
    07:00 +15°C° 0 mm 2 mps 615 mmHg 40%
    08:00 +17°C° 0 mm 2 mps 616 mmHg 35%
    09:00 +20°C° 0 mm 2 mps 617 mmHg 31%
    10:00 +21°C° 0 mm 2 mps 617 mmHg 29%
    11:00 +24°C° 0 mm 2 mps 617 mmHg 28%
    12:00 +25°C° 0 mm 2 mps 617 mmHg 26%
    13:00 +25°C° 0 mm 3 mps 617 mmHg 25%
    14:00 +26°C° 0 mm 3 mps 617 mmHg 25%
    15:00 +26°C° 0 mm 3 mps 617 mmHg 25%
    16:00 +25°C° 0 mm 3 mps 616 mmHg 29%
    17:00 +22°C° 0 mm 3 mps 616 mmHg 32%
    18:00 +21°C° 0 mm 3 mps 616 mmHg 36%
    19:00 +19°C° 0 mm 3 mps 615 mmHg 38%
    20:00 +17°C° 0 mm 3 mps 615 mmHg 39%
    21:00 +14°C° 0 mm 3 mps 615 mmHg 41%
    22:00 +14°C° 0 mm 3 mps 615 mmHg 41%
    23:00 +14°C° 0 mm 2 mps 615 mmHg 42%

    27 August, Sunday

    Time Temperature Precipitation Wind Pressure Humidity
    00:00 +14°C° 0 mm 2 mps 614 mmHg 42%
    01:00 +13°C° 0 mm 2 mps 614 mmHg 44%
    02:00 +13°C° 0 mm 2 mps 614 mmHg 46%
    03:00 +12°C° 0 mm 2 mps 614 mmHg 47%
    04:00 +12°C° 0 mm 2 mps 614 mmHg 48%
    05:00 +12°C° 0 mm 2 mps 614 mmHg 48%
    06:00 +12°C° 0 mm 2 mps 614 mmHg 49%
    07:00 +15°C° 0 mm 2 mps 615 mmHg 43%
    08:00 +17°C° 0 mm 2 mps 615 mmHg 37%
    09:00 +20°C° 0 mm 2 mps 616 mmHg 31%
    10:00 +21°C° 0 mm 2 mps 616 mmHg 29%
    11:00 +23°C° 0 mm 2 mps 616 mmHg 27%
    12:00 +25°C° 0 mm 2 mps 616 mmHg 25%
    13:00 +25°C° 0 mm 3 mps 616 mmHg 25%
    14:00 +26°C° 0 mm 3 mps 616 mmHg 25%
    15:00 +26°C° 0 mm 3 mps 616 mmHg 25%
    16:00 +25°C° 0 mm 3 mps 615 mmHg 29%
    17:00 +22°C° 0 mm 3 mps 615 mmHg 32%
    18:00 +21°C° 0 mm 2 mps 615 mmHg 36%
    19:00 +19°C° 0 mm 2 mps 614 mmHg 39%
    20:00 +17°C° 0 mm 2 mps 614 mmHg 42%
    21:00 +15°C° 0 mm 2 mps 614 mmHg 44%
    22:00 +15°C° 0 mm 2 mps 614 mmHg 45%
    23:00 +14°C° 0 mm 2 mps 614 mmHg 46%
    Show more